Location: Bednik
(45.3500°N, 16.3833°E)
Time: 21:33:23
(UTC+00:00)

Iridium 4 Rocket - Pass Details

Date: 08 August 2020
Orbit: 586 x 903 km, 86.9° (Epoch: 21 September)

Event Time Altitude Azimuth Distance (km) Brightness Sun altitude
Exits shadow 20:41:58 30° 77° (ENE) 1,118 4.1 -21.3°
Drops below altitude 10° 20:45:25 10° 23° (NNE) 1,959 6.0 -21.7°
Sets 20:47:45 0° 13° (NNE) 2,845 7.1 -21.9°
